GSAT-7

Last updated on Sept. 20, 2020, 5:45 a.m. UTC

1 39234U 13044B   20263.53366003 -.00000092  00000-0  00000-0 0  9994
2 39234   0.0105 155.7447 0007221  95.7614  13.5083  1.00271055 24306
UTC
Height (km)
Latitude
Longitude
Inclination
Orbital Period
UTC large
Height (km)
Speed (km/s)
/
Latitude / Longitude
Inclination (degrees)
Orbital Period (minutes)
Azimuth
Elevation
Range (km)
Doppler Factor
iOS Compass Heading
iOS Angle

Next 30 passes for location: Hong Kong

Rise time Rise Azimuth (degrees) Set time Set Azimuth (degrees) Duration Max altitude (degrees)

No matching passes for this satellites